| time (UTC) | temp F | wind direction | speed MPH | gust MPH | rain 1hr in | rain 24hr in | rain mn in | humidity % | barometer mb |
| 20260508081017 | 62 | 141 | 3.0 | 8.0 | 0.00 | 0.00 | 0.00 | 62 | 1014.6 |
| 20260508080020 | 62 | 150 | 5.0 | 9.0 | 0.00 | 0.00 | 0.00 | 66 | 1014.4 |
| 20260508073019 | 61 | 96 | 3.0 | 6.0 | 0.00 | 0.00 | 0.00 | 62 | 1014.0 |
| 20260508072017 | 61 | 79 | 3.0 | 5.0 | 0.00 | 0.00 | 0.00 | 64 | 1013.9 |
| 20260508071017 | 61 | 82 | 3.0 | 7.0 | 0.00 | 0.00 | 0.00 | 64 | 1013.8 |
| 20260508070021 | 61 | 66 | 2.0 | 4.0 | 0.00 | 0.00 | 0.00 | 66 | 1013.8 |
| 20260508064019 | 60 | 58 | 4.0 | 8.0 | 0.00 | 0.00 | 0.00 | 67 | 1013.6 |
| 20260508063018 | 59 | 70 | 5.0 | 10.0 | 0.00 | 0.00 | 0.00 | 67 | 1013.4 |
| 20260508062017 | 58 | 66 | 3.0 | 5.0 | 0.00 | 0.00 | 0.00 | 68 | 1013.2 |
| 20260508061018 | 57 | 38 | 3.0 | 7.0 | 0.00 | 0.00 | 0.00 | 69 | 1013.1 |
| 20260508055018 | 55 | 344 | 2.0 | 3.0 | 0.00 | 0.00 | 0.00 | 74 | 1013.1 |
| 20260508054018 | 54 | 344 | 2.0 | 4.0 | 0.00 | 0.00 | 0.00 | 75 | 1013.0 |
| 20260508053021 | 53 | 344 | 4.0 | 5.0 | 0.00 | 0.00 | 0.00 | 75 | 1013.1 |
| 20260508051018 | 51 | 344 | 4.0 | 5.0 | 0.00 | 0.00 | 0.00 | 75 | 1013.1 |
| 20260508050019 | 51 | 343 | 5.0 | 8.0 | 0.00 | 0.00 | 0.00 | 75 | 1013.1 |
| 20260508045018 | 51 | 337 | 4.0 | 5.0 | 0.00 | 0.00 | 0.00 | 74 | 1013.1 |
| 20260508044017 | 51 | 337 | 4.0 | 5.0 | 0.00 | 0.00 | 0.00 | 74 | 1013.2 |
| 20260508043018 | 51 | 337 | 4.0 | 6.0 | 0.00 | 0.00 | 0.00 | 73 | 1013.1 |
| 20260508042018 | 51 | 337 | 4.0 | 5.0 | 0.00 | 0.00 | 0.00 | 73 | 1013.1 |
| 20260508041018 | 51 | 337 | 4.0 | 6.0 | 0.00 | 0.00 | 0.00 | 73 | 1013.1 |
| 20260508035018 | 51 | 334 | 4.0 | 9.0 | 0.00 | 0.00 | 0.00 | 73 | 1013.1 |
| 20260508034018 | 51 | 335 | 4.0 | 6.0 | 0.00 | 0.00 | 0.00 | 73 | 1013.0 |
| 20260508032018 | 51 | 337 | 4.0 | 6.0 | 0.00 | 0.00 | 0.00 | 73 | 1013.1 |
| 20260508031018 | 51 | 337 | 3.0 | 5.0 | 0.00 | 0.00 | 0.00 | 73 | 1013.0 |
| 20260508025018 | 51 | 337 | 3.0 | 5.0 | 0.00 | 0.00 | 0.00 | 73 | 1013.1 |
| 20260508024018 | 51 | 337 | 4.0 | 5.0 | 0.00 | 0.00 | 0.00 | 73 | 1012.9 |
| 20260508023023 | 51 | 337 | 4.0 | 5.0 | 0.00 | 0.00 | 0.00 | 74 | 1012.9 |
| 20260508022018 | 51 | 337 | 4.0 | 5.0 | 0.00 | 0.00 | 0.00 | 74 | 1013.0 |
| 20260508021018 | 51 | 337 | 4.0 | 5.0 | 0.00 | 0.00 | 0.00 | 74 | 1013.0 |
| 20260508015018 | 51 | 337 | 4.0 | 5.0 | 0.00 | 0.00 | 0.00 | 76 | 1013.1 |
| 20260508014017 | 51 | 347 | 4.0 | 5.0 | 0.00 | 0.00 | 0.00 | 76 | 1013.2 |
| 20260508013018 | 51 | 352 | 4.0 | 5.0 | 0.00 | 0.00 | 0.00 | 77 | 1013.3 |
| 20260508011022 | 51 | 339 | 3.0 | 4.0 | 0.00 | 0.00 | 0.00 | 79 | 1013.7 |
| 20260508010019 | 51 | 342 | 4.0 | 6.0 | 0.00 | 0.00 | 0.00 | 80 | 1013.8 |
| 20260508005018 | 52 | 339 | 3.0 | 5.0 | 0.00 | 0.00 | 0.00 | 82 | 1014.0 |
| 20260508004019 | 52 | 342 | 4.0 | 6.0 | 0.00 | 0.00 | 0.00 | 83 | 1014.0 |
| 20260508003018 | 52 | 338 | 3.0 | 5.0 | 0.00 | 0.00 | 0.00 | 84 | 1014.2 |
| 20260508002018 | 53 | 345 | 3.0 | 4.0 | 0.00 | 0.00 | 0.00 | 84 | 1014.0 |
| 20260508001017 | 53 | 345 | 3.0 | 4.0 | 0.00 | 0.00 | 0.00 | 84 | 1014.1 |
| 20260508000019 | 54 | 357 | 3.0 | 5.0 | 0.00 | 0.00 | 0.00 | 83 | 1014.2 |
| 20260507235017 | 55 | 41 | 2.0 | 4.0 | 0.00 | 0.00 | 0.00 | 83 | 1014.3 |
| 20260507234018 | 55 | 41 | 2.0 | 4.0 | 0.00 | 0.00 | 0.00 | 83 | 1014.3 |
| 20260507233020 | 56 | 40 | 2.0 | 4.0 | 0.00 | 0.00 | 0.00 | 82 | 1014.4 |
| 20260507232018 | 56 | 40 | 1.0 | 4.0 | 0.00 | 0.00 | 0.00 | 82 | 1014.4 |
| 20260507231017 | 56 | 41 | 2.0 | 4.0 | 0.00 | 0.00 | 0.00 | 82 | 1014.6 |
| 20260507225017 | 57 | 50 | 3.0 | 5.0 | 0.00 | 0.00 | 0.00 | 82 | 1014.6 |
| 20260507224017 | 57 | 51 | 2.0 | 4.0 | 0.00 | 0.00 | 0.00 | 82 | 1014.8 |
| 20260507223018 | 57 | 51 | 2.0 | 4.0 | 0.00 | 0.00 | 0.00 | 82 | 1014.7 |
| 20260507222020 | 57 | 38 | 2.0 | 4.0 | 0.00 | 0.00 | 0.00 | 82 | 1014.7 |
| 20260507221017 | 57 | 36 | 3.0 | 5.0 | 0.00 | 0.00 | 0.00 | 82 | 1014.7 |
| 20260507220020 | 57 | 42 | 3.0 | 5.0 | 0.00 | 0.00 | 0.00 | 82 | 1014.7 |
| 20260507215018 | 57 | 42 | 3.0 | 5.0 | 0.00 | 0.00 | 0.00 | 83 | 1014.8 |
| 20260507214017 | 56 | 28 | 2.0 | 4.0 | 0.00 | 0.00 | 0.00 | 83 | 1014.8 |
| 20260507213017 | 56 | 357 | 2.0 | 3.0 | 0.00 | 0.00 | 0.00 | 83 | 1014.9 |
| 20260507212018 | 56 | 357 | 2.0 | 3.0 | 0.00 | 0.00 | 0.00 | 82 | 1014.8 |
| 20260507211018 | 56 | 357 | 0.0 | 2.0 | 0.00 | 0.00 | 0.00 | 82 | 1014.8 |
| 20260507210019 | 56 | 6 | 2.0 | 4.0 | 0.00 | 0.00 | 0.00 | 82 | 1014.8 |
| 20260507205017 | 57 | 123 | 0.0 | 3.0 | 0.00 | 0.00 | 0.00 | 81 | 1014.6 |
| 20260507203017 | 58 | 123 | 1.0 | 3.0 | 0.00 | 0.00 | 0.00 | 81 | 1014.4 |
| 20260507202017 | 58 | 123 | 1.0 | 3.0 | 0.00 | 0.00 | 0.00 | 81 | 1014.4 |
| 20260507200021 | 58 | 123 | 0.0 | 2.0 | 0.00 | 0.00 | 0.00 | 81 | 1014.3 |
| 20260507195018 | 58 | 0 | 0.0 | 0.0 | 0.00 | 0.00 | 0.00 | 81 | 1014.2 |
| 20260507194017 | 58 | 0 | 0.0 | 0.0 | 0.00 | 0.00 | 0.00 | 80 | 1013.9 |
| 20260507193017 | 58 | 123 | 1.0 | 2.0 | 0.00 | 0.00 | 0.00 | 80 | 1013.7 |
| 20260507191017 | 58 | 123 | 0.0 | 1.0 | 0.00 | 0.00 | 0.00 | 79 | 1013.3 |
| 20260507185018 | 59 | 123 | 1.0 | 3.0 | 0.00 | 0.00 | 0.00 | 79 | 1013.3 |
| 20260507183017 | 59 | 123 | 1.0 | 3.0 | 0.00 | 0.00 | 0.00 | 78 | 1013.3 |
| 20260507182016 | 60 | 160 | 4.0 | 7.0 | 0.00 | 0.00 | 0.00 | 78 | 1013.2 |
| 20260507181017 | 60 | 166 | 5.0 | 9.0 | 0.00 | 0.00 | 0.00 | 78 | 1013.1 |
| 20260507180018 | 60 | 164 | 5.0 | 9.0 | 0.00 | 0.00 | 0.00 | 77 | 1013.0 |
| 20260507174017 | 60 | 157 | 6.0 | 11.0 | 0.00 | 0.00 | 0.00 | 76 | 1012.9 |
| 20260507173017 | 61 | 167 | 6.0 | 10.0 | 0.00 | 0.00 | 0.00 | 76 | 1012.8 |
| 20260507172017 | 61 | 156 | 6.0 | 11.0 | 0.00 | 0.00 | 0.00 | 76 | 1012.8 |
| 20260507171017 | 61 | 155 | 5.0 | 11.0 | 0.00 | 0.00 | 0.00 | 76 | 1012.6 |
| 20260507170018 | 61 | 159 | 5.0 | 11.0 | 0.00 | 0.00 | 0.00 | 75 | 1012.4 |
| 20260507165017 | 62 | 136 | 4.0 | 8.0 | 0.00 | 0.00 | 0.00 | 75 | 1012.5 |
| 20260507163017 | 61 | 144 | 5.0 | 10.0 | 0.00 | 0.00 | 0.00 | 75 | 1012.5 |
| 20260507160019 | 62 | 153 | 5.0 | 9.0 | 0.00 | 0.00 | 0.00 | 75 | 1012.2 |
| 20260507154016 | 62 | 146 | 7.0 | 13.0 | 0.00 | 0.00 | 0.00 | 75 | 1012.3 |
| 20260507153016 | 62 | 162 | 9.0 | 15.0 | 0.00 | 0.00 | 0.00 | 75 | 1012.5 |
| 20260507151019 | 63 | 159 | 6.0 | 12.0 | 0.00 | 0.00 | 0.00 | 72 | 1012.6 |
| 20260507145019 | 62 | 158 | 8.0 | 15.0 | 0.00 | 0.00 | 0.00 | 73 | 1012.7 |
| 20260507144016 | 62 | 153 | 10.0 | 17.0 | 0.00 | 0.00 | 0.00 | 73 | 1012.8 |
| 20260507143016 | 63 | 152 | 8.0 | 16.0 | 0.00 | 0.00 | 0.00 | 74 | 1012.8 |
| 20260507142017 | 63 | 155 | 8.0 | 16.0 | 0.00 | 0.00 | 0.00 | 73 | 1012.8 |
| 20260507141017 | 62 | 146 | 8.0 | 14.0 | 0.00 | 0.00 | 0.00 | 74 | 1012.9 |
| 20260507140018 | 63 | 149 | 8.0 | 15.0 | 0.00 | 0.00 | 0.00 | 72 | 1013.2 |
| 20260507135016 | 64 | 152 | 8.0 | 15.0 | 0.00 | 0.00 | 0.00 | 70 | 1013.1 |
| 20260507134016 | 63 | 165 | 9.0 | 16.0 | 0.00 | 0.00 | 0.00 | 72 | 1013.3 |
| 20260507133016 | 62 | 160 | 10.0 | 18.0 | 0.00 | 0.00 | 0.00 | 74 | 1013.5 |
| 20260507132018 | 62 | 153 | 9.0 | 15.0 | 0.00 | 0.00 | 0.00 | 73 | 1013.5 |
| 20260507130019 | 62 | 155 | 9.0 | 15.0 | 0.00 | 0.00 | 0.00 | 72 | 1013.7 |
| 20260507125019 | 63 | 146 | 8.0 | 16.0 | 0.00 | 0.00 | 0.00 | 73 | 1013.8 |
| 20260507124016 | 62 | 146 | 9.0 | 17.0 | 0.00 | 0.00 | 0.00 | 72 | 1013.9 |
| 20260507123018 | 62 | 158 | 10.0 | 18.0 | 0.00 | 0.00 | 0.00 | 72 | 1013.9 |
| 20260507122016 | 62 | 148 | 10.0 | 18.0 | 0.00 | 0.00 | 0.00 | 72 | 1014.1 |
| 20260507121015 | 62 | 151 | 10.0 | 16.0 | 0.00 | 0.00 | 0.00 | 72 | 1014.2 |
| 20260507120017 | 62 | 152 | 7.0 | 13.0 | 0.00 | 0.00 | 0.00 | 72 | 1014.3 |
| 20260507115016 | 62 | 162 | 10.0 | 18.0 | 0.00 | 0.00 | 0.00 | 72 | 1014.2 |
| 20260507112016 | 62 | 149 | 7.0 | 14.0 | 0.00 | 0.00 | 0.00 | 71 | 1014.4 |
| 20260507110017 | 61 | 154 | 7.0 | 13.0 | 0.00 | 0.00 | 0.00 | 74 | 1014.6 |
| 20260507105016 | 61 | 152 | 8.0 | 15.0 | 0.00 | 0.00 | 0.00 | 74 | 1014.6 |
| 20260507104016 | 61 | 155 | 10.0 | 15.0 | 0.00 | 0.00 | 0.00 | 74 | 1014.8 |
| 20260507103019 | 61 | 158 | 9.0 | 15.0 | 0.00 | 0.00 | 0.00 | 76 | 1014.7 |
| 20260507100021 | 62 | 149 | 6.0 | 13.0 | 0.00 | 0.00 | 0.00 | 73 | 1014.7 |
| 20260507094014 | 62 | 149 | 6.0 | 11.0 | 0.00 | 0.00 | 0.00 | 73 | 1014.9 |
| 20260507093016 | 62 | 136 | 5.0 | 12.0 | 0.00 | 0.00 | 0.00 | 73 | 1014.8 |
| 20260507092016 | 62 | 152 | 5.0 | 12.0 | 0.00 | 0.00 | 0.00 | 73 | 1014.8 |
| 20260507091016 | 61 | 144 | 3.0 | 8.0 | 0.00 | 0.00 | 0.00 | 72 | 1014.8 |
| 20260507090015 | 62 | 81 | 1.0 | 4.0 | 0.00 | 0.00 | 0.00 | 72 | 1014.8 |
| 20260507085016 | 62 | 111 | 3.0 | 6.0 | 0.00 | 0.00 | 0.00 | 72 | 1014.9 |
| 20260507083016 | 61 | 115 | 5.0 | 10.0 | 0.00 | 0.00 | 0.00 | 72 | 1014.6 |
| 20260507082016 | 60 | 100 | 4.0 | 10.0 | 0.00 | 0.00 | 0.00 | 75 | 1014.5 |